アトラス彗星

C/2024 L5 ( ATLAS )

English version
Home page
Updated on August 30, 2025

---------------------------------------------------------------------

・ プロフィール

発見日 2024年6月14日
発見光度 17.6等
発見者 Asteroid Terrestrial-Impact Last Alert System (ATLAS) search program

・ 写真集

・ 軌道要素

Epoch 2025 May 5.0 TT = JDT 2460800.5
T 2025 Mar. 10.39582 TT                                 Pike
q   3.4324141            (2000.0)            P               Q
z  -0.0108340      Peri.  290.51437     -0.86072728     -0.48590688
 +/-0.0000013      Node   139.17659     -0.33578373     +0.76603698
e   1.0371868      Incl.  166.57307     -0.38261970     +0.42081093
From 985 observations 2024 June 14-2025 July 24, mean residual 0".6.

・ 星図

・ 光度変化

        m1 = 2.3 + 5 logΔ + 20.0 log r

---------------------------------------------------------------------

軌道要素はM.P.E.C. 2025-O159に掲載されたものです。
星図はステラナビゲータ Ver.11 (アストロアーツ) で作成したものです。
光度グラフはComet for Windowsで作成したものです。

---------------------------------------------------------------------

Copyright(C) Seiichi Yoshida (comet@aerith.net). All rights reserved.